Weather in Yarkoye Pole

Russia / Republic of Crimea     45°12′22″N   35°12′03″E
temp.,
°C
wind,
m/s
gust,
m/s
humid.,
%
clouds,
%
prec.,
mm/h
press.,
hPa
HPBL,
m
2 march, tue
tue200:00+2nnw34825 0.0 1029252
03:00+1wnw458928 0.0 1030190
06:00+2nw358492 0.1 1030266
09:00+2wnw458170 0.1 1030333
12:00+5wnw45560 0.0 10301005
15:00+7w57510 0.0 10291219
18:00+6w585915 0.0 1026583
21:00+3w7107346 0.0 1025505
3 march, wed
wed300:00+3wsw8157535 0.0 1024605
03:00+4w9167661 0.0 1022760
06:00+4nw71174100 0.2 1022800
09:00+4nw9117496 0.3 10241281
12:00+4nnw897185 0.1 1025914
15:00+6nnw695848 0.1 10261025
18:00+6nnw58580 0.0 1026421
21:00+5nw45630 0.0 1028132
4 march, thu
thu400:00+3w34700 0.0 1028106
03:00+3wsw35750 0.0 1028101
06:00+2wsw34690 0.0 102690
09:00+5ssw23590 0.0 1026133
12:00+9ssw34530 0.0 1024952
15:00+10sw24470 0.0 10231018
18:00+7ssw46630 0.0 1021247
21:00+5ssw59740 0.0 1020260
5 march, fri
fri500:00+4ssw59780 0.0 1019262
03:00+4ssw610790 0.0 1018240
06:00+4ssw58820 0.0 1017187
09:00+6s69750 0.0 1017290
12:00+11ssw69550 0.0 1016409
15:00+12ssw79515 0.0 1014422
18:00+9s8117031 0.0 1013266
21:00+7ssw597964 0.0 1014214
6 march, sat
sat600:00+6sw478655 0.0 1014140
03:00+6wsw228265 0.0 101423
06:00+6nnw2278100 0.0 101425
09:00+5n6790100 0.0 1016385
12:00+4n7889100 0.1 1017406
15:00+3n6992100 0.8 1018559
18:00+4n7958100 0.1 10191053
21:00+4n7952100 0.1 1022914